Location: Clanezzo
(45.7500°N, 9.6000°E)
Time: 08:00:24
(UTC+00:00)

CAS-4A - Pass Details

Date: 08 July 2022
Orbit: 521 x 537 km, 43.0° (Epoch: 08 August)

Event Time Altitude Azimuth Distance (km) Brightness Sun altitude
Exits shadow 02:11:07 - 269° (W) 1,939 ? -12.2°
Reaches altitude 10° 02:11:36 10° 267° (W) 1,755 ? -12.2°
Maximum altitude 02:15:25 43° 195° (SSW) 742 ? -11.8°
Drops below altitude 10° 02:19:14 10° 124° (SE) 1,757 ? -11.3°
Sets 02:21:32 0° 117° (ESE) 2,647 ? -11.1°
